星链-34586 (STARLINK-34586)

导读 | 豆包AI

STARLINK-34586是美国SpaceX公司星链星座的一员,于2025年7月26日发射入轨。星链计划旨在构建全球低轨卫星通信网络,为全球用户提供高速宽带互联网服务,同时也具备一定的军事应用潜力。该卫星采用霍尔推进器,设计寿命5-7年,退役后会主动离轨再入大气层烧毁,减少空间垃圾产生,目前已在轨正常运行。

基本信息
目录编号:
64950
目录名称:
STARLINK-34586
国际标识:
2025-158U
轨道中心:
EARTH
卫星名称:
星链-34586
卫星全名:
星链-34586 (STARLINK-34586)
卫星状态:
在轨 (已飞行277 天)
发射日期:
2025-07-26 UTC
国别 :
美国 (US)
星等 :
--
轨道信息
数据来源 国际轨道数据
星历时间: 2026-04-29T11:06:32+0800
8小时前
查看轨道信息
半长轴: 6927.637km
偏心率: 0.0002245
轨道倾角: 97.562°
近地点辐角 88.633°
升交点赤经 343.739°
平近点角 271.515°
近地点: 547.944km
远地点: 551.056km
周期: 95.640分钟
每日圈数: 15.056539
详细信息
固有亮度:
5
最大亮度:
2.5
卫星平台:
Starlink V1.0
覆盖范围:
全球
运营商:
太空探索技术公司
运营商所在国:
美国
制造商(研发单位):
太空探索技术公司
制造商所在国:
美国
使用方式:
暂无
卫星简介
Starlink 计划是 SpaceX 推出的全球卫星互联网项目,通过发射低轨道卫星,为全球尤其是偏远地区提供高速、低延迟的互联网服务。自 2019 年起,Starlink 已部署数千颗卫星,旨在缩小全球数字鸿沟,推动互联网普及。该项目还为军事、航空等行业提供通信支持,带来广泛经济效益。
2D轨道图
3D轨道图
轨道高度分析图
轨道倾角分析图
轨道综合分析图
查看轨道综合分析图